Weather History for La Porte, IN

Change the Weather History Date:

Thursday, January 17, 2013

  Actual Average (KVPZ) Record (KVPZ)
Temperature  
Mean Temperature 24 °F 23 °F  
Max Temperature 32 °F 31 °F 55 °F (1999)
Min Temperature 17 °F 16 °F -4 °F (2009)
Degree Days  
Heating Degree Days 40 42  
Month to date heating degree days 705  
Since 1 July heating degree days 3107  
Cooling Degree Days 0 0  
Month to date cooling degree days 0  
Year to date cooling degree days 0  
Moisture  
Dew Point 18 °F    
Average Humidity 67    
Maximum Humidity 88    
Minimum Humidity 51    
Precipitation  
Precipitation 0.00 in 0.06 in 0.28 in (2012)
Month to date precipitation 0.92  
Year to date precipitation 0.92  
Sea Level Pressure  
Sea Level Pressure 30.24 in    
Wind  
Wind Speed 9 mph (NW)    
Max Wind Speed 21 mph    
Max Gust Speed 28 mph    
Visibility 10 miles    
Events      
T = Trace of Precipitation, MM = Missing Value Source: NWS Daily Summary

Daily Weather History Graph

Daily Weather History Graph

Search for Another Location

Airport:

Trip Planner

Search our weather history database for the weather conditions in past years. The results will help you decide how hot, cold, wet, or windy it might be!

Date:

Astronomy

Jan. 17, 2013 Rise Set
Actual Time 7:10 AM CST 4:44 PM CST
Civil Twilight 6:39 AM CST 5:14 PM CST
Nautical Twilight 6:05 AM CST 5:49 PM CST
Astronomical Twilight 5:32 AM CST 6:22 PM CST
Moon 10:11 AM CST (1/17) 11:41 PM CST (1/17)
Length of Visible Light 10h 35m
Length of Day
9h 34m
Waxing Crescent, 38% of the Moon is Illuminated
Jan 17
Waxing Crescent
Jan 18
First Quarter
Jan 26
Full
Feb 3
Last Quarter
Feb 10
New

Hourly Weather History & Observations

Time (CST) Temp. Windchill Dew Point Humidity Pressure Visibility Wind Dir Wind Speed Gust Speed Precip Events Conditions
12:15 AM 32.4 °F 26.0 °F 25.7 °F 76% 30.04 in 10.0 mi West 6.9 mph - N/A   Overcast
12:35 AM 32.4 °F 26.0 °F 25.7 °F 76% 30.06 in 10.0 mi West 6.9 mph - N/A   Overcast
12:55 AM 32.2 °F 26.7 °F 25.7 °F 77% 30.07 in 10.0 mi West 5.8 mph - N/A   Overcast
1:15 AM 32.0 °F 27.5 °F 25.9 °F 78% 30.08 in 10.0 mi West 4.6 mph - N/A   Overcast
1:35 AM 32.0 °F 27.5 °F 26.2 °F 79% 30.09 in 10.0 mi West 4.6 mph - N/A   Overcast
1:55 AM 31.8 °F - 26.1 °F 79% 30.09 in 10.0 mi Calm Calm - N/A   Overcast
2:15 AM 31.1 °F - 25.7 °F 80% 30.10 in 10.0 mi Calm Calm - N/A   Overcast
2:35 AM 30.6 °F 27.1 °F 25.9 °F 83% 30.10 in 10.0 mi West 3.5 mph - N/A   Overcast
2:55 AM 31.3 °F 26.6 °F 26.6 °F 83% 30.11 in 10.0 mi West 4.6 mph - N/A   Overcast
3:35 AM 31.6 °F 28.3 °F 27.0 °F 83% 30.12 in 10.0 mi WNW 3.5 mph - N/A   Overcast
3:55 AM 32.0 °F 27.5 °F 27.3 °F 83% 30.13 in 10.0 mi WNW 4.6 mph - N/A   Overcast
4:15 AM 32.0 °F 26.4 °F 28.2 °F 86% 30.14 in 10.0 mi NW 5.8 mph - N/A   Overcast
4:35 AM 32.0 °F 28.7 °F 28.6 °F 87% 30.14 in 10.0 mi NW 3.5 mph - N/A   Overcast
4:55 AM 32.0 °F 26.4 °F 28.9 °F 88% 30.15 in 10.0 mi NNW 5.8 mph - N/A   Overcast
5:15 AM 32.0 °F 27.5 °F 27.9 °F 85% 30.16 in 10.0 mi NNW 4.6 mph - N/A   Overcast
5:35 AM 31.8 °F 23.9 °F 25.0 °F 76% 30.17 in 10.0 mi NNW 9.2 mph - N/A   Mostly Cloudy
6:15 AM 29.8 °F 20.3 °F 22.6 °F 75% 30.19 in 10.0 mi NNW 11.5 mph - N/A   Scattered Clouds
6:35 AM 29.5 °F 20.4 °F 21.4 °F 72% 30.19 in 10.0 mi NNW 10.4 mph - N/A   Clear
6:55 AM 29.1 °F 20.0 °F 21.0 °F 72% 30.20 in 10.0 mi NNW 10.4 mph 16.1 mph N/A   Clear
7:15 AM 28.4 °F 19.7 °F 20.3 °F 72% 30.20 in 10.0 mi NNW 9.2 mph - N/A   Clear
7:35 AM 27.9 °F 18.4 °F 20.1 °F 73% 30.21 in 10.0 mi NNW 10.4 mph - N/A   Clear
7:55 AM 28.9 °F 19.2 °F 20.3 °F 70% 30.21 in 10.0 mi NNW 11.5 mph - N/A   Clear
8:15 AM 30.0 °F 20.0 °F 19.8 °F 66% 30.23 in 10.0 mi NNW 12.7 mph 18.4 mph N/A   Clear
8:35 AM 30.7 °F 20.9 °F 19.0 °F 62% 30.24 in 10.0 mi NNW 12.7 mph 18.4 mph N/A   Clear
8:55 AM 31.1 °F 20.5 °F 19.8 °F 63% 30.25 in 10.0 mi NNW 15.0 mph - N/A   Clear
9:15 AM 30.9 °F 18.7 °F 19.4 °F 62% 30.26 in 10.0 mi NNW 19.6 mph 25.3 mph N/A   Clear
9:35 AM 30.7 °F 18.8 °F 18.0 °F 59% 30.26 in 10.0 mi NNW 18.4 mph 25.3 mph N/A   Clear
9:55 AM 30.9 °F 20.2 °F 17.2 °F 57% 30.28 in 10.0 mi NNW 15.0 mph 23.0 mph N/A   Clear
10:15 AM 30.7 °F 19.2 °F 16.2 °F 55% 30.27 in 10.0 mi NNW 17.3 mph 23.0 mph N/A   Clear
10:35 AM 30.9 °F 19.8 °F 15.8 °F 54% 30.27 in 10.0 mi NW 16.1 mph 24.2 mph N/A   Clear
10:55 AM 30.9 °F 19.8 °F 14.9 °F 52% 30.26 in 10.0 mi NW 16.1 mph 23.0 mph N/A   Clear
11:15 AM 31.5 °F 20.9 °F 15.1 °F 51% 30.26 in 10.0 mi North 15.0 mph 19.6 mph N/A   Clear
11:35 AM 30.7 °F 19.2 °F 14.5 °F 51% 30.26 in 10.0 mi NNW 17.3 mph 23.0 mph N/A   Clear
11:55 AM 31.1 °F 18.9 °F 15.6 °F 53% 30.26 in 10.0 mi NNW 19.6 mph 25.3 mph N/A   Clear
12:15 PM 30.6 °F 19.0 °F 14.7 °F 52% 30.26 in 10.0 mi NNW 17.3 mph 25.3 mph N/A   Clear
12:35 PM 30.0 °F 18.7 °F 14.4 °F 52% 30.26 in 10.0 mi NNW 16.1 mph 27.6 mph N/A   Clear
12:55 PM 30.6 °F 20.7 °F 15.8 °F 54% 30.26 in 10.0 mi NW 12.7 mph 25.3 mph N/A   Clear
1:15 PM 29.7 °F 17.4 °F 14.5 °F 53% 30.26 in 10.0 mi NNW 18.4 mph 24.2 mph N/A   Clear
1:35 PM 29.3 °F 17.3 °F 14.5 °F 54% 30.26 in 10.0 mi NW 17.3 mph 27.6 mph N/A   Clear
1:55 PM 29.1 °F 16.4 °F 14.4 °F 54% 30.26 in 10.0 mi NNW 19.6 mph 25.3 mph N/A   Clear
2:15 PM 28.9 °F 16.1 °F 14.4 °F 55% 30.27 in 10.0 mi NW 19.6 mph 25.3 mph N/A   Clear
2:35 PM 28.4 °F 15.4 °F 14.7 °F 57% 30.27 in 10.0 mi NW 19.6 mph 26.5 mph N/A   Clear
2:55 PM 27.7 °F 14.8 °F 14.0 °F 57% 30.28 in 10.0 mi NNW 18.4 mph 24.2 mph N/A   Clear
3:15 PM 27.3 °F 13.6 °F 13.6 °F 56% 30.28 in 10.0 mi NNW 20.7 mph 25.3 mph N/A   Clear
3:35 PM 26.6 °F 13.8 °F 12.9 °F 56% 30.29 in 10.0 mi NNW 17.3 mph 24.2 mph N/A   Clear
3:55 PM 26.1 °F 12.7 °F 12.6 °F 57% 30.31 in 10.0 mi North 18.4 mph 25.3 mph N/A   Clear
4:55 PM 23.5 °F 11.8 °F 11.7 °F 61% 30.32 in 10.0 mi NW 12.7 mph - N/A   Scattered Clouds
5:35 PM 23.0 °F 15.8 °F 11.1 °F 60% 30.33 in 10.0 mi NW 5.8 mph - N/A   Mostly Cloudy
7:55 PM 18.7 °F 13.5 °F 12.4 °F 76% 30.36 in 10.0 mi WSW 3.5 mph - N/A   Mostly Cloudy
8:15 PM 20.3 °F 13.8 °F 11.7 °F 69% 30.36 in 10.0 mi West 4.6 mph - N/A   Mostly Cloudy
8:35 PM 21.2 °F 14.9 °F 12.2 °F 68% 30.36 in 10.0 mi West 4.6 mph - N/A   Mostly Cloudy
8:55 PM 21.2 °F 13.6 °F 12.2 °F 68% 30.37 in 10.0 mi West 5.8 mph - N/A   Overcast
9:15 PM 21.0 °F 13.4 °F 11.7 °F 67% 30.38 in 10.0 mi West 5.8 mph - N/A   Overcast
9:35 PM 20.5 °F 14.0 °F 11.5 °F 68% 30.38 in 10.0 mi West 4.6 mph - N/A   Overcast
9:55 PM 19.9 °F 10.1 °F 11.3 °F 69% 30.38 in 10.0 mi WSW 8.1 mph - N/A   Mostly Cloudy
11:15 PM 19.0 °F 11.1 °F 10.4 °F 69% 30.38 in 10.0 mi WSW 5.8 mph - N/A   Overcast
11:35 PM 17.8 °F 9.6 °F 9.7 °F 71% 30.37 in 10.0 mi WSW 5.8 mph - N/A   Overcast
11:55 PM 19.0 °F 11.1 °F 10.6 °F 70% 30.38 in 10.0 mi West 5.8 mph - N/A   Overcast